CAPE
0 0 0 0 0 0 0 0 0 0 0 0 0 0 0 0 0 0 0 0 0 0 0 0 129 172 292 530 523 546 659 599 388 215 109 34 24 31 7 2 3 17 21 47 36 0 2 1 0
0 0 0 0 0 0 0 0 0 0 0 0 0 0 0 0 0 0 0 0 0 0 0 0 0 0 1 11 35 84 51 15 3 3 0 0 0 3 3 1 1 1 2 5 3 2 1 2 2
0 0 0 0 0 0 0 0 0 0 0 0 0 0 0 0 0 0 0 0 0 0 0 0 0 0 0 0 0 0 1 2 1 2 2 2 2 2 0 0 0 0 0 0 0 0 0 0 0
0 0 0 0 0 0 0 0 0 0 0 0 0 0 0 0 0 0 0 0 0 0 0 0 1 2 1 0 2 2 2 1 1 0 0 0 0 0 0 0 0 0 0 0 0 0 0 0 0
0 0 0 0 0 0 0 0 0 0 0 0 0 0 0 0 0 0 0 0 0 0 0 0 1 0 0 0 0 0 0 0 0 0 0 0 0 0 0 0 0 0 0 0 0 0 0 0 0
0 0 0 0 0 0 0 0 0 0 0 0 0 0 0 0 0 0 0 0 0 0 0 0 0 0 0 0 0 0 0 0 0 0 0 0 0 0 0 0 0 0 0 0 0 0 0 0 0
0 0 0 0 0 0 0 0 0 0 0 0 0 0 0 0 0 0 0 0 0 0 0 0 0 0 0 0 0 0 0 0 0 0 0 0 0 0 0 0 0 0 0 0 0 0 0 0 0
0 0 0 0 0 0 0 0 0 0 0 0 0 0 0 0 0 0 0 0 0 0 0 0 0 0 0 0 0 0 0 0 0 0 0 0 0 0 0 0 0 0 0 0 0 0 0 0 0
0 0 0 0 0 0 0 0 0 0 0 0 0 0 0 0 0 0 0 0 0 0 0 0 0 0 0 0 0 0 0 0 0 0 0 0 0 0 0 0 0 0 0 0 0 0 0 0 0
0 0 0 0 0 0 0 0 0 0 0 0 0 0 0 0 0 0 0 0 0 0 0 0 0 0 0 0 0 0 0 0 0 0 0 0 0 0 0 0 0 0 0 0 0 0 0 0 0
0 0 0 0 0 0 0 0 0 0 0 0 0 0 0 0 0 0 0 0 0 0 0 0 0 0 0 0 0 0 0 0 0 0 0 0 0 0 0 0 0 0 0 0 0 0 0 0 0
0 0 0 0 0 0 0 0 0 0 0 0 0 0 0 0 0 0 0 0 0 0 0 0 0 0 0 0 0 0 0 0 0 0 0 0 0 0 0 0 0 0 0 0 0 0 0 0 0
0 0 0 0 0 0 0 0 0 0 0 0 0 0 0 0 0 0 0 0 0 0 0 0 0 0 0 0 0 0 0 0 0 0 0 0 0 0 0 0 0 0 0 0 0 0 0 0 0
0 0 0 0 0 0 0 0 0 0 0 0 0 0 0 0 0 0 0 0 0 0 0 0 0 0 0 0 0 0 0 0 0 0 0 0 0 0 0 0 0 0 0 0 0 0 0 0 0
0 0 0 0 0 0 0 0 0 0 0 0 0 0 0 0 0 0 0 0 0 0 0 0 0 0 0 0 0 0 0 0 0 0 0 0 0 0 0 0 0 0 0 0 0 0 0 0 0
0 0 0 0 0 0 0 0 0 0 0 0 0 0 0 0 0 0 0 0 0 0 0 0 0 0 0 0 0 0 0 0 0 0 0 0 0 0 0 0 0 0 0 0 0 0 0 0 0
0 0 0 0 0 0 0 0 0 0 0 0 0 0 0 0 0 0 0 0 0 0 0 0 0 0 0 0 0 0 0 0 0 0 0 0 0 0 0 0 0 0 0 0 0 0 0 0 0
0 0 0 0 0 0 0 0 0 0 0 0 0 0 0 0 0 0 0 0 0 0 0 0 0 0 0 0 0 0 0 0 0 0 0 0 0 0 0 0 0 0 0 0 0 0 0 0 0
0 0 0 0 0 0 0 0 0 0 0 0 0 0 0 0 0 0 0 0 0 0 0 0 0 0 0 0 0 0 0 0 0 0 0 0 0 0 0 0 0 0 0 0 0 0 0 0 0
0 0 0 0 0 0 0 0 0 0 0 0 0 0 0 0 0 0 0 0 0 0 0 0 0 0 0 0 0 0 0 0 0 0 0 0 0 0 0 0 0 0 0 0 0 0 0 0 0
0 0 0 0 0 0 0 0 0 0 0 0 0 0 0 0 0 0 0 0 0 0 0 0 0 0 0 0 0 0 0 0 0 0 0 0 0 0 0 0 0 0 0 0 0 0 0 0 0
0 0 0 0 0 0 0 0 0 0 0 0 0 0 0 0 0 0 0 0 0 0 0 0 0 0 0 0 0 0 0 0 0 0 0 0 0 0 0 0 0 0 0 0 0 0 0 0 0
0 0 0 0 0 0 0 0 0 0 0 0 0 0 0 0 0 0 0 0 0 0 0 0 0 0 0 0 0 0 0 0 0 0 0 0 0 0 0 0 0 0 0 0 0 0 0 0 0
0 0 0 0 0 0 0 0 0 0 0 0 0 0 0 0 0 0 0 0 0 0 0 0 0 0 0 0 0 0 0 0 0 0 0 0 0 0 0 0 0 0 0 0 0 0 0 0 0
0 0 0 0 0 0 0 0 0 0 0 0 0 0 0 0 0 0 0 0 0 0 0 0 0 0 0 0 0 0 0 0 0 0 0 0 0 0 0 0 0 0 0 0 0 0 0 0 0
0 0 0 0 0 0 0 0 0 0 0 0 0 0 0 0 0 0 0 0 0 0 0 0 0 0 0 0 0 0 0 0 0 0 0 0 0 0 0 0 0 0 0 0 0 0 0 0 0
0 0 0 0 0 0 0 0 0 0 0 0 0 0 0 0 0 0 0 0 0 0 0 0 0 0 0 0 0 0 0 0 0 0 0 0 0 0 0 0 0 0 0 0 0 0 0 0 0
0 0 0 0 0 0 0 0 0 0 0 0 0 0 0 0 0 0 0 0 0 0 0 0 0 0 0 0 0 0 0 0 0 0 0 0 0 0 0 0 0 0 0 0 0 0 0 0 0
0 0 0 0 0 0 0 0 0 0 0 0 0 0 0 0 0 0 0 0 0 0 0 0 0 0 0 0 0 0 0 0 0 0 0 0 0 0 0 0 0 0 0 0 0 0 0 0 0
0 0 0 0 0 0 0 0 0 0 0 0 0 0 0 0 0 0 0 0 0 0 0 0 0 0 0 0 0 0 0 0 0 0 0 0 0 0 0 0 0 0 0 0 0 0 0 0 0
CIN
-0 -0 -0 -0 -0 -0 -0 -0 -0 -0 -0 -0 -0 -0 -0 -0 -0 -0 -0 -0 -0 -0 -0 -0 -316 -279 -198 -92 -81 -58 -30 -31 -72 -132 -209 -267 -273 -278 -286 -0 -0 -299 -256 -204 -236 -0 -0 -0 -0
-0 -0 -0 -0 -0 -0 -0 -0 -0 -0 -0 -0 -0 -0 -0 -0 -0 -0 -0 -0 -0 -0 -0 -0 -0 -152 -270 -444 -374 -275 -304 -165 -0 -0 -0 -0 -0 -0 -0 -0 -0 -0 -0 -0 -0 -0 -0 -0 -0
-0 -0 -0 -0 -0 -0 -0 -0 -0 -0 -0 -0 -0 -0 -0 -0 -0 -0 -0 -0 -0 -0 -0 -0 -0 -0 -0 -0 -0 -0 -0 -0 -1 -0 -0 -0 -0 -0 -0 -0 -0 -0 -0 -0 -0 -0 -0 -0 -0
-0 -0 -0 -0 -0 -0 -0 -0 -0 -0 -0 -0 -0 -0 -0 -0 -0 -0 -0 -0 -0 -0 -0 -0 -0 -0 -0 -0 -0 -0 -0 -0 -0 -0 -0 -0 -0 -0 -0 -0 -0 -0 -0 -0 -0 -0 -0 -0 -0
-0 -0 -0 -0 -0 -0 -0 -0 -0 -0 -0 -0 -0 -0 -0 -0 -0 -0 -0 -0 -0 -0 -0 -0 -0 -0 -0 -0 -0 -0 -0 -0 -0 -0 -0 -0 -0 -0 -0 -0 -0 -0 -0 -0 -0 -0 -0 -0 -0
-0 -0 -0 -0 -0 -0 -0 -0 -0 -0 -0 -0 -0 -0 -0 -0 -0 -0 -0 -0 -0 -0 -0 -0 -0 -0 -0 -0 -0 -0 -0 -0 -0 -0 -0 -0 -0 -0 -0 -0 -0 -0 -0 -0 -0 -0 -0 -0 -0
-0 -0 -0 -0 -0 -0 -0 -0 -0 -0 -0 -0 -0 -0 -0 -0 -0 -0 -0 -0 -0 -0 -0 -0 -0 -0 -0 -0 -0 -0 -0 -0 -0 -0 -0 -0 -0 -0 -0 -0 -0 -0 -0 -0 -0 -0 -0 -0 -0
-0 -0 -0 -0 -0 -0 -0 -0 -0 -0 -0 -0 -0 -0 -0 -0 -0 -0 -0 -0 -0 -0 -0 -0 -0 -0 -0 -0 -0 -0 -0 -0 -0 -0 -0 -0 -0 -0 -0 -0 -0 -0 -0 -0 -0 -0 -0 -0 -0
-0 -0 -0 -0 -0 -0 -0 -0 -0 -0 -0 -0 -0 -0 -0 -0 -0 -0 -0 -0 -0 -0 -0 -0 -0 -0 -0 -0 -0 -0 -0 -0 -0 -0 -0 -0 -0 -0 -0 -0 -0 -0 -0 -0 -0 -0 -0 -0 -0
-0 -0 -0 -0 -0 -0 -0 -0 -0 -0 -0 -0 -0 -0 -0 -0 -0 -0 -0 -0 -0 -0 -0 -0 -0 -0 -0 -0 -0 -0 -0 -0 -0 -0 -0 -0 -0 -0 -0 -0 -0 -0 -0 -0 -0 -0 -0 -0 -0
-0 -0 -0 -0 -0 -0 -0 -0 -0 -0 -0 -0 -0 -0 -0 -0 -0 -0 -0 -0 -0 -0 -0 -0 -0 -0 -0 -0 -0 -0 -0 -0 -0 -0 -0 -0 -0 -0 -0 -0 -0 -0 -0 -0 -0 -0 -0 -0 -0
-0 -0 -0 -0 -0 -0 -0 -0 -0 -0 -0 -0 -0 -0 -0 -0 -0 -0 -0 -0 -0 -0 -0 -0 -0 -0 -0 -0 -0 -0 -0 -0 -0 -0 -0 -0 -0 -0 -0 -0 -0 -0 -0 -0 -0 -0 -0 -0 -0
-0 -0 -0 -0 -0 -0 -0 -0 -0 -0 -0 -0 -0 -0 -0 -0 -0 -0 -0 -0 -0 -0 -0 -0 -0 -0 -0 -0 -0 -0 -0 -0 -0 -0 -0 -0 -0 -0 -0 -0 -0 -0 -0 -0 -0 -0 -0 -0 -0
-0 -0 -0 -0 -0 -0 -0 -0 -0 -0 -0 -0 -0 -0 -0 -0 -0 -0 -0 -0 -0 -0 -0 -0 -0 -0 -0 -0 -0 -0 -0 -0 -0 -0 -0 -0 -0 -0 -0 -0 -0 -0 -0 -0 -0 -0 -0 -0 -0
-0 -0 -0 -0 -0 -0 -0 -0 -0 -0 -0 -0 -0 -0 -0 -0 -0 -0 -0 -0 -0 -0 -0 -0 -0 -0 -0 -0 -0 -0 -0 -0 -0 -0 -0 -0 -0 -0 -0 -0 -0 -0 -0 -0 -0 -0 -0 -0 -0
-0 -0 -0 -0 -0 -0 -0 -0 -0 -0 -0 -0 -0 -0 -0 -0 -0 -0 -0 -0 -0 -0 -0 -0 -0 -0 -0 -0 -0 -0 -0 -0 -0 -0 -0 -0 -0 -0 -0 -0 -0 -0 -0 -0 -0 -0 -0 -0 -0
-0 -0 -0 -0 -0 -0 -0 -0 -0 -0 -0 -0 -0 -0 -0 -0 -0 -0 -0 -0 -0 -0 -0 -0 -0 -0 -0 -0 -0 -0 -0 -0 -0 -0 -0 -0 -0 -0 -0 -0 -0 -0 -0 -0 -0 -0 -0 -0 -0
-0 -0 -0 -0 -0 -0 -0 -0 -0 -0 -0 -0 -0 -0 -0 -0 -0 -0 -0 -0 -0 -0 -0 -0 -0 -0 -0 -0 -0 -0 -0 -0 -0 -0 -0 -0 -0 -0 -0 -0 -0 -0 -0 -0 -0 -0 -0 -0 -0
-0 -0 -0 -0 -0 -0 -0 -0 -0 -0 -0 -0 -0 -0 -0 -0 -0 -0 -0 -0 -0 -0 -0 -0 -0 -0 -0 -0 -0 -0 -0 -0 -0 -0 -0 -0 -0 -0 -0 -0 -0 -0 -0 -0 -0 -0 -0 -0 -0
-0 -0 -0 -0 -0 -0 -0 -0 -0 -0 -0 -0 -0 -0 -0 -0 -0 -0 -0 -0 -0 -0 -0 -0 -0 -0 -0 -0 -0 -0 -0 -0 -0 -0 -0 -0 -0 -0 -0 -0 -0 -0 -0 -0 -0 -0 -0 -0 -0
-0 -0 -0 -0 -0 -0 -0 -0 -0 -0 -0 -0 -0 -0 -0 -0 -0 -0 -0 -0 -0 -0 -0 -0 -0 -0 -0 -0 -0 -0 -0 -0 -0 -0 -0 -0 -0 -0 -0 -0 -0 -0 -0 -0 -0 -0 -0 -0 -0
-0 -0 -0 -0 -0 -0 -0 -0 -0 -0 -0 -0 -0 -0 -0 -0 -0 -0 -0 -0 -0 -0 -0 -0 -0 -0 -0 -0 -0 -0 -0 -0 -0 -0 -0 -0 -0 -0 -0 -0 -0 -0 -0 -0 -0 -0 -0 -0 -0
-0 -0 -0 -0 -0 -0 -0 -0 -0 -0 -0 -0 -0 -0 -0 -0 -0 -0 -0 -0 -0 -0 -0 -0 -0 -0 -0 -0 -0 -0 -0 -0 -0 -0 -0 -0 -0 -0 -0 -0 -0 -0 -0 -0 -0 -0 -0 -0 -0
-0 -0 -0 -0 -0 -0 -0 -0 -0 -0 -0 -0 -0 -0 -0 -0 -0 -0 -0 -0 -0 -0 -0 -0 -0 -0 -0 -0 -0 -0 -0 -0 -0 -0 -0 -0 -0 -0 -0 -0 -0 -0 -0 -0 -0 -0 -0 -0 -0
-0 -0 -0 -0 -0 -0 -0 -0 -0 -0 -0 -0 -0 -0 -0 -0 -0 -0 -0 -0 -0 -0 -0 -0 -0 -0 -0 -0 -0 -0 -0 -0 -0 -0 -0 -0 -0 -0 -0 -0 -0 -0 -0 -0 -0 -0 -0 -0 -0
-0 -0 -0 -0 -0 -0 -0 -0 -0 -0 -0 -0 -0 -0 -0 -0 -0 -0 -0 -0 -0 -0 -0 -0 -0 -0 -0 -0 -0 -0 -0 -0 -0 -0 -0 -0 -0 -0 -0 -0 -0 -0 -0 -0 -0 -0 -0 -0 -0
-0 -0 -0 -0 -0 -0 -0 -0 -0 -0 -0 -0 -0 -0 -0 -0 -0 -0 -0 -0 -0 -0 -0 -0 -0 -0 -0 -0 -0 -0 -0 -0 -0 -0 -0 -0 -0 -0 -0 -0 -0 -0 -0 -0 -0 -0 -0 -0 -0
-0 -0 -0 -0 -0 -0 -0 -0 -0 -0 -0 -0 -0 -0 -0 -0 -0 -0 -0 -0 -0 -0 -0 -0 -0 -0 -0 -0 -0 -0 -0 -0 -0 -0 -0 -0 -0 -0 -0 -0 -0 -0 -0 -0 -0 -0 -0 -0 -0
-0 -0 -0 -0 -0 -0 -0 -0 -0 -0 -0 -0 -0 -0 -0 -0 -0 -0 -0 -0 -0 -0 -0 -0 -0 -0 -0 -0 -0 -0 -0 -0 -0 -0 -0 -0 -0 -0 -0 -0 -0 -0 -0 -0 -0 -0 -0 -0 -0
-0 -0 -0 -0 -0 -0 -0 -0 -0 -0 -0 -0 -0 -0 -0 -0 -0 -0 -0 -0 -0 -0 -0 -0 -0 -0 -0 -0 -0 -0 -0 -0 -0 -0 -0 -0 -0 -0 -0 -0 -0 -0 -0 -0 -0 -0 -0 -0 -0
Wind_Speed
14 16 16 16 11 12 8 12 13 12 14 13 13 13 10 14 11 12 13 13 13 12 11 12 13 14 13 12 13 13 14 14 13 12 12 12 12 13 14 14 14 15 15 15 16 16 17 17 18
14 14 15 13 11 11 10 11 10 11 13 13 13 13 15 14 13 12 9 10 9 10 9 9 9 10 10 9 8 9 9 9 10 10 11 11 12 12 13 14 14 14 15 16 16 17 17 18 19
13 14 12 13 12 11 11 10 9 12 12 11 12 11 11 14 11 7 8 9 7 8 8 7 7 7 6 6 6 6 7 8 9 10 10 11 11 12 12 13 14 15 15 16 17 18 19 19 20
14 14 14 12 9 7 7 7 10 12 11 11 11 10 10 9 11 8 8 8 6 5 5 5 6 5 5 5 6 6 7 8 8 9 10 10 11 12 12 13 14 15 15 16 17 18 19 20 21
16 15 13 12 10 9 7 9 10 10 10 9 10 7 7 9 9 10 11 9 7 5 3 3 3 4 4 4 5 5 6 6 7 8 9 9 10 11 12 13 14 14 15 16 17 18 19 19 20
15 15 15 13 11 10 10 10 11 9 8 10 9 9 6 9 9 11 11 9 7 7 4 2 2 2 3 3 3 4 4 5 6 7 8 9 10 10 11 12 13 14 14 15 16 18 18 19 19
15 15 14 13 12 14 12 11 8 8 8 6 10 10 9 7 9 11 11 10 9 8 6 3 1 1 1 1 2 2 3 4 5 6 7 8 9 10 11 12 13 13 14 15 16 17 19 19 20
15 15 15 14 15 16 13 11 13 9 5 13 8 9 10 7 9 9 9 9 9 9 8 7 4 1 1 1 2 2 2 3 4 5 6 7 9 10 11 12 13 13 15 16 17 18 19 20 21
14 15 15 15 16 17 15 13 14 16 13 10 6 7 12 11 8 6 5 5 6 8 9 9 9 6 4 1 2 2 3 3 3 4 6 7 8 10 12 13 14 15 16 17 17 19 20 20 21
13 16 16 13 17 19 18 14 16 16 14 11 7 9 13 6 3 4 6 7 8 10 11 9 9 9 7 4 3 3 4 5 5 7 7 8 9 10 12 13 14 15 17 18 18 20 21 22 23
15 19 16 17 18 22 22 20 17 17 15 12 9 7 8 5 4 5 7 8 12 10 8 10 10 9 8 6 5 4 4 5 6 7 7 8 8 9 11 13 14 16 18 19 20 20 21 23 24
22 18 18 22 22 24 24 23 23 17 17 18 13 14 10 8 9 10 10 10 9 10 11 10 10 10 9 7 7 6 6 6 6 6 6 7 8 9 10 12 14 16 17 18 19 21 22 23 25
23 25 23 22 23 25 26 23 24 19 18 19 20 19 14 11 11 11 12 12 11 12 11 12 11 12 11 10 9 8 8 8 7 6 6 6 7 8 10 12 14 16 17 18 20 21 23 24 26
26 29 31 28 27 28 29 27 22 14 26 21 19 16 15 14 14 14 15 15 15 14 14 13 14 13 12 12 12 11 10 9 8 8 7 7 7 7 9 11 13 15 17 18 20 22 23 26 27
26 32 34 24 30 28 25 25 17 13 22 21 20 17 17 15 16 17 17 17 17 16 15 16 15 15 15 14 13 12 11 11 10 9 9 8 7 8 9 10 12 14 16 18 20 22 24 26 28
28 30 32 28 23 24 20 23 16 21 19 16 15 17 17 16 17 18 18 18 17 17 17 16 16 17 17 16 15 14 13 12 11 10 9 8 7 7 8 9 12 14 16 18 21 23 25 27 29
27 26 25 25 24 26 22 24 20 29 21 18 19 20 18 19 18 19 18 18 17 17 17 17 16 17 18 17 15 15 14 13 12 11 10 9 8 8 9 10 12 14 16 19 21 24 25 28 30
26 29 28 27 31 27 29 28 28 26 30 24 25 22 22 23 27 20 19 18 18 17 17 17 16 16 16 16 15 14 14 14 13 12 11 9 9 9 9 10 12 14 16 19 21 23 25 27 31
32 33 31 30 31 37 34 32 30 31 27 27 26 29 26 24 32 26 23 19 18 17 17 17 17 16 16 16 16 16 17 16 15 13 12 11 10 10 9 11 12 13 16 18 20 22 24 27 31
32 32 33 37 34 36 36 36 31 28 30 34 29 35 30 24 25 30 25 20 15 15 16 16 17 17 17 16 15 16 16 16 15 13 13 12 11 10 10 11 11 12 15 17 19 21 24 25 28
31 33 36 37 43 41 50 46 33 25 22 24 21 22 24 30 28 27 24 21 17 15 14 15 16 16 15 14 13 14 14 16 15 15 14 13 12 11 11 11 12 13 14 16 18 19 22 25 25
35 33 37 39 42 49 33 65 35 30 26 25 24 19 17 24 30 29 27 22 18 15 13 13 14 15 15 15 15 16 16 15 16 15 14 13 12 12 12 12 13 13 14 16 17 19 21 23 26
34 33 33 36 41 47 38 42 46 31 32 22 12 14 18 33 30 36 30 22 16 14 13 12 13 14 15 15 16 17 16 16 15 15 15 15 13 13 13 13 13 14 14 15 16 17 19 22 23
30 31 33 35 38 48 37 37 60 30 29 30 31 31 32 37 43 32 25 18 14 13 12 11 13 14 14 15 15 17 17 16 16 15 15 15 15 16 15 15 16 15 15 15 15 16 18 20 22
29 32 42 43 38 46 35 38 36 34 42 37 38 35 36 37 32 31 22 17 15 12 11 11 12 14 14 14 16 17 17 17 17 16 16 17 17 17 17 17 17 17 17 16 16 17 19 20 22
34 33 41 51 55 56 41 47 48 40 39 40 38 41 47 45 34 25 18 14 11 9 9 11 12 14 15 16 17 18 18 18 18 18 18 18 18 18 18 18 18 17 17 17 17 19 20 21 22
39 41 38 45 44 53 56 54 52 40 35 35 39 44 42 33 26 23 19 13 11 10 10 12 14 15 18 20 20 20 21 21 21 20 20 20 19 19 18 18 18 18 17 17 17 19 21 22 23
36 32 43 38 51 58 55 58 55 52 38 37 42 45 44 36 26 20 13 11 12 12 12 12 17 20 22 23 24 25 24 24 24 23 22 22 21 19 18 18 18 18 17 17 18 20 20 21 23
39 41 40 42 43 57 61 58 43 43 42 47 46 46 46 39 27 17 14 14 16 16 15 16 20 23 23 23 25 27 28 26 26 25 24 23 21 20 20 19 18 18 18 18 19 20 20 21 21
41 44 41 47 52 47 49 51 58 57 57 57 55 46 39 35 24 20 21 23 23 23 23 24 26 27 26 27 28 29 29 29 29 29 26 24 24 22 21 20 19 19 18 17 18 20 19 20 21
Wind_Direction
15 10 14 16 66 60 82 46 31 51 38 32 32 15 25 359 40 64 44 98 86 100 101 100 103 106 102 87 86 89 86 82 66 49 18 17 1 5 7 352 342 334 340 344 340 334 329 329 328
21 28 28 58 74 74 89 79 84 54 33 39 36 18 354 346 355 9 43 102 91 94 100 99 99 103 99 80 68 69 62 51 48 40 18 18 29 15 5 359 356 352 352 345 339 330 322 317 316
71 55 78 75 80 88 69 93 93 57 58 65 43 35 22 359 5 27 27 100 88 87 94 96 96 93 81 64 57 47 35 39 46 35 37 28 21 16 15 11 4 354 350 348 344 337 324 318 318
75 83 71 82 105 136 125 115 81 55 60 66 55 61 56 57 35 74 84 85 89 82 83 84 90 82 72 64 62 61 62 50 39 29 23 18 13 8 4 2 0 358 356 352 346 339 332 326 321
62 78 73 70 85 90 121 105 97 79 75 72 62 84 105 66 63 83 108 101 104 95 78 63 77 73 68 69 72 68 62 48 37 29 26 20 10 359 354 355 356 354 351 349 348 344 340 336 334
67 62 49 52 65 72 86 84 74 85 85 70 65 46 83 63 89 109 114 111 109 116 105 68 38 69 77 77 73 60 47 31 23 26 27 26 21 13 7 1 358 360 360 357 354 347 344 339 336
43 40 39 39 45 40 53 77 77 63 58 91 53 43 49 70 110 115 120 116 122 125 126 122 98 53 42 17 12 20 22 16 13 11 13 16 13 6 360 354 353 358 358 357 356 352 341 336 335
28 25 20 25 21 18 30 45 28 45 50 20 51 41 36 68 112 108 112 121 130 138 145 149 147 150 284 299 310 321 338 341 353 6 11 5 356 349 348 344 343 346 349 348 348 343 337 333 332
9 1 0 3 4 4 16 11 9 3 1 9 27 5 6 28 98 102 106 128 147 161 165 164 165 166 168 209 266 286 298 313 323 334 343 349 348 342 338 336 337 337 337 336 337 335 333 333 330
350 342 344 357 351 347 347 348 348 348 345 340 339 340 344 18 114 161 178 185 186 186 185 183 180 180 178 190 208 246 281 290 298 307 316 323 330 335 334 334 335 334 333 332 333 332 332 329 328
335 326 335 333 334 336 332 333 336 334 324 322 314 300 321 309 264 239 222 214 207 203 202 198 194 194 199 218 213 224 245 269 284 294 302 312 321 330 331 332 332 330 328 327 327 327 329 329 326
317 317 318 322 325 327 325 328 324 320 308 320 311 320 312 279 261 249 244 238 235 221 218 216 213 207 206 222 226 230 240 254 268 280 290 300 311 320 325 327 329 329 328 327 327 327 327 328 326
310 312 315 316 318 318 320 316 317 311 313 314 312 311 299 277 261 263 259 271 268 246 239 229 220 218 217 218 228 233 243 254 254 267 277 286 299 309 318 324 326 326 325 324 324 324 322 322 322
314 312 311 312 311 311 312 312 316 274 322 321 314 292 286 280 265 275 277 264 259 259 250 245 230 231 228 228 230 236 245 249 252 264 266 274 290 302 312 317 321 322 323 323 321 321 322 320 319
315 311 311 308 310 311 316 312 302 281 323 317 315 309 299 271 280 262 258 261 256 257 263 246 239 235 231 233 235 238 237 243 243 251 265 269 280 292 305 314 318 320 323 323 323 322 321 319 318
313 313 310 316 321 320 315 262 280 314 316 298 295 305 298 277 269 262 266 265 269 266 254 254 246 235 233 234 238 240 238 243 243 249 256 259 269 285 297 309 315 319 322 323 322 320 318 317 315
309 300 301 304 312 313 302 296 296 317 314 299 297 299 285 266 272 273 272 262 265 258 259 252 243 234 232 239 239 239 237 240 243 244 249 255 265 278 291 301 310 316 320 321 321 319 317 314 313
297 303 304 303 314 308 300 285 296 295 307 279 268 282 287 291 254 282 283 268 263 260 254 250 246 242 237 241 243 244 242 244 243 239 240 246 259 271 283 296 304 311 316 318 319 318 318 316 314
301 300 297 301 306 305 299 287 283 270 290 286 281 267 267 268 255 299 293 282 268 262 255 245 241 237 233 232 230 238 239 242 239 238 236 246 256 264 274 287 297 305 310 314 317 318 318 318 317
292 291 292 300 303 302 300 276 290 291 276 266 271 259 257 271 263 302 299 292 273 258 250 244 237 232 227 230 237 251 245 252 246 241 244 246 251 259 271 279 289 299 307 313 316 317 318 319 321
287 290 297 296 307 304 304 271 295 294 284 271 282 272 263 256 258 301 301 294 286 271 251 238 230 229 227 229 236 256 255 265 253 247 248 247 253 261 271 277 284 292 302 306 312 317 318 317 319
282 297 298 302 306 304 311 275 306 307 298 302 304 298 296 257 303 301 304 298 285 274 267 253 239 237 233 229 230 234 235 243 249 252 254 250 252 261 269 273 280 287 296 302 308 313 317 319 316
288 304 303 303 302 302 303 306 310 314 311 310 291 303 306 255 309 298 301 297 287 279 270 256 239 237 238 232 232 235 242 253 261 262 256 259 261 267 271 273 276 281 289 298 306 312 316 318 316
300 302 304 302 300 289 299 302 290 314 317 320 317 312 311 305 297 301 305 304 293 285 274 257 245 240 243 233 236 236 239 249 257 257 253 256 263 270 270 271 275 280 286 293 301 309 315 318 318
295 297 297 296 293 290 300 296 282 304 308 310 311 308 309 307 303 300 299 298 290 274 260 256 239 240 238 235 237 234 238 247 249 254 258 262 265 268 267 268 271 277 283 290 298 305 311 315 314
290 282 284 290 289 291 296 288 294 302 306 308 309 309 306 303 303 299 292 293 284 270 247 247 239 240 242 239 240 243 243 254 258 261 266 265 267 270 270 268 270 273 279 286 293 300 307 312 313
294 286 285 287 288 289 288 289 294 301 306 312 316 318 319 307 307 302 296 284 278 274 250 234 240 250 255 256 257 253 253 256 258 265 267 269 273 274 267 267 268 270 273 278 287 295 302 308 310
287 295 289 286 284 283 284 286 288 294 301 309 312 317 317 321 314 311 302 292 291 286 271 252 259 263 269 266 263 262 257 258 262 266 266 269 271 270 265 262 264 267 270 275 283 293 300 305 309
293 287 285 286 283 283 284 282 290 290 297 301 304 309 315 313 311 311 309 305 301 296 280 272 273 274 268 261 262 261 259 258 259 263 266 264 265 264 262 257 257 262 268 273 281 290 297 303 307
290 288 283 281 284 283 285 283 285 287 290 291 296 306 306 309 307 310 308 306 303 295 287 277 279 274 267 269 266 262 261 259 258 260 261 261 262 263 261 256 255 259 263 269 277 285 292 299 302